"Pseudo-MPEC" for Jacf1JC

Created 2024 Apr 22 20:22:05 UT using Find_Orb

Click here for an explanation of pseudo-MPECs

 
 Astrometry: 
     Jacf1JC*!C2024 04 01=?8Aga\am)Tht((j1d5k5XtH\,yt:m,]4msua#*)QfeQVvoFh+XbW84
     Jacf1JC*!C2024 04 01-:HanB!0ibH$/uSJR]T)I?5Zp*Z^i8Q,H8Ene40gl?bFj;)xx-qgW84
     Jacf1JC !C2024 04 02AgL!%;9YFy(_'-?o=,b\H.=kXxP)s=/tCK3q3^0g?=,54lwK:_Q2W84
     Jacf1JC !C2024 04 02PdN):11AQ.Fd1qQI\riyXXh$U9?nDQx.Y'D^4?5BeS-7_WsWLjX:W84
     Jacf1JC !C2024 04 02ngSg5xr3`+ocPSwoBs5O'L48EF8qAstrometryjJ2^k?LqxmX*buW84
     Jacf1JC !C2024 04 02Zor)7EALj/iU0;EZM^%Fd_bSPl;K1w0B(CIMSgbxWb2^8_dQWL*-W84
     Jacf1JC !C2024 04 02sFXS1/=gQF1TMBCZtUB,mBxR`P/3Z`ZN9E]W3iWxC*?MP9(svoR(W84
     Jacf1JC !C2024 04 020(8C=.]Q]Pwt-d=b;HXZP.redacted;N2[(b+ZE;c]8Zku1(KbW3W84
     Jacf1JC !C2024 04 02LtQh5TFJ^/xJjgO`2j#I(]nWIw]e.Jl(!4/[hGD@L4F9d`%.NkUBW84
     Jacf1JC !C2024 04 02HXs+D'Uj01$(t9Jv]jHLj;j*txHHi$jl\QZE-J/r)7FB;v_xRO9BW84
     Jacf1JC !C2024 04 0243t\5d:ZVQx-eCn6-@?DA;`=AEMO/I=CDS2bnlryjYdhNTuHMsiiW84
     Jacf1JC !C2024 04 023ad3#8b2a%/_2BGh?YYyD!'Rv)Isoclick]4Yp7K2#37gherer#cW84
     Jacf1JC !C2024 04 02t*Q9=dl;esn;#tePCHdVrU(*2ouyAxb;\nU2G;RuforcmR72(Z4FW84
     Jacf1JC !C2024 04 027,!s63h1gcd)%Fw4F05b0%/explanationb=vjQ0jBqk;aY]sFG]W84
     Jacf1JC !C2024 04 02O]':*kO-`YP8G(#7Jt]@[W.XEE8)LRgq\A$vAxQ3yYj7]dNWDib`W84

Station data:
(W84) Cerro Tololo-DECam  (S30.169594 W70.806420)  Chile.  Observer F. Valdes.
    Measurer S. Deen. 4.0-m reflector + CCD.

Orbital elements:  Jacf1JC
   Perihelion 2023 Sep 9.94988 +/- 370 TT = 22:47:49 (JD 2460197.44988)
Epoch 2024 Apr  2.0 TT = JDT 2460402.5   Earth MOID: 0.3360   Ma: 0.0165
M  10.10492222 +/- 70               (J2000 ecliptic)             AutoNEOCP
n   0.04928025 +/- 0.0991           Peri.   88.60757 +/- 60
a   7.36807581 +/- 9.87             Node   343.98628 +/- 35
e   0.8790018 +/- 0.249             Incl.   34.97912 +/- 45
P  20.00                   H 18.43  G  0.15   U 11.2  SR
q 0.89152325 +/- 1.1    Q 13.8446283 +/- 33.9
From 15 observations 2024 Apr. 1-2 (4.3 hr); mean residual 0".09
Residuals in arcseconds: 
240401 W84  .06-  .06+    240402 W84  .04+  .21-    240402 W84  .03+  .04+    
240401 W84  .11-  .20+    240402 W84  .01-  .07-    240402 W84  .08+  .04+    
240402 W84  .01-  .06+    240402 W84  .02-  .08-    240402 W84  .07+  .04-    
240402 W84  .09+  .00     240402 W84  .05-  .05-    240402 W84  .02-  .12+    
240402 W84  .10+  .13-    240402 W84  .06+  .09-    240402 W84  .19-  .14+    

Ephemerides (geocentric):
Date (UTC) HH   RA             Dec           delta  r     elong  mag " sig PA
---- --------  ------------   ------------  ------ ------ -----  --- --------
2024 04 22 20  11 18 24.638   -21 14 18.47  2.3111 3.1473 139.9 23.5 3826  94
2024 04 22 21  11 18 23.053   -21 14 05.26  2.3118 3.1477 139.8 23.5 3839  94
2024 04 22 22  11 18 21.472   -21 13 52.06  2.3126 3.1482 139.8 23.5 3852  94
2024 04 22 23  11 18 19.894   -21 13 38.87  2.3133 3.1486 139.8 23.5 3865  94
2024 04 23 00  11 18 18.319   -21 13 25.68  2.3140 3.1490 139.7 23.5 3878  94
2024 04 23 01  11 18 16.747   -21 13 12.49  2.3148 3.1494 139.7 23.5 3891  94
2024 04 23 02  11 18 15.178   -21 12 59.31  2.3155 3.1498 139.7 23.5 3904  94
2024 04 23 03  11 18 13.612   -21 12 46.13  2.3162 3.1502 139.6 23.5 3917  94
2024 04 23 04  11 18 12.049   -21 12 32.96  2.3170 3.1506 139.6 23.5 3930  94
2024 04 23 05  11 18 10.489   -21 12 19.79  2.3177 3.1510 139.5 23.5 3943  94
2024 04 23 06  11 18 08.933   -21 12 06.63  2.3184 3.1514 139.5 23.5 3956  94
2024 04 23 07  11 18 07.379   -21 11 53.47  2.3192 3.1519 139.5 23.5 3969  94
2024 04 23 08  11 18 05.829   -21 11 40.32  2.3199 3.1523 139.4 23.5 3982  94
2024 04 23 09  11 18 04.281   -21 11 27.17  2.3206 3.1527 139.4 23.5 3995  94
2024 04 23 10  11 18 02.737   -21 11 14.03  2.3214 3.1531 139.4 23.5 4008  94
2024 04 23 11  11 18 01.196   -21 11 00.89  2.3221 3.1535 139.3 23.5 4021  94
2024 04 23 12  11 17 59.657   -21 10 47.76  2.3228 3.1539 139.3 23.5 4034  94
2024 04 23 13  11 17 58.122   -21 10 34.63  2.3236 3.1543 139.2 23.5 4047  94
2024 04 23 14  11 17 56.590   -21 10 21.50  2.3243 3.1547 139.2 23.5 4061  94
2024 04 23 15  11 17 55.061   -21 10 08.39  2.3251 3.1552 139.2 23.5 4074  94
2024 04 23 16  11 17 53.535   -21 09 55.27  2.3258 3.1556 139.1 23.5 4087  94
2024 04 23 17  11 17 52.012   -21 09 42.16  2.3265 3.1560 139.1 23.5 4100  94
2024 04 23 18  11 17 50.492   -21 09 29.06  2.3273 3.1564 139.1 23.5 4113  94
2024 04 23 19  11 17 48.976   -21 09 15.96  2.3280 3.1568 139.0 23.5 4127  94
2024 04 23 20  11 17 47.462   -21 09 02.87  2.3287 3.1572 139.0 23.5 4140  94
2024 04 23 21  11 17 45.951   -21 08 49.78  2.3295 3.1576 138.9 23.5 4153  94
2024 04 23 22  11 17 44.444   -21 08 36.70  2.3302 3.1580 138.9 23.5 4167  94
2024 04 23 23  11 17 42.939   -21 08 23.62  2.3310 3.1584 138.9 23.5 4180  94
2024 04 24 00  11 17 41.438   -21 08 10.55  2.3317 3.1589 138.8 23.5 4193  94
2024 04 24 01  11 17 39.939   -21 07 57.48  2.3324 3.1593 138.8 23.5 4207  94
2024 04 24 02  11 17 38.444   -21 07 44.42  2.3332 3.1597 138.7 23.5 4220  94
2024 04 24 03  11 17 36.952   -21 07 31.36  2.3339 3.1601 138.7 23.5 4233  94
2024 04 24 04  11 17 35.463   -21 07 18.31  2.3347 3.1605 138.7 23.5 4247  94
2024 04 24 05  11 17 33.976   -21 07 05.26  2.3354 3.1609 138.6 23.5 4260  94
2024 04 24 06  11 17 32.493   -21 06 52.22  2.3362 3.1613 138.6 23.5 4273  94
2024 04 24 07  11 17 31.013   -21 06 39.18  2.3369 3.1617 138.6 23.5 4287  94
2024 04 24 08  11 17 29.536   -21 06 26.15  2.3376 3.1621 138.5 23.5 4300  94
2024 04 24 09  11 17 28.062   -21 06 13.13  2.3384 3.1626 138.5 23.5 4314  94
2024 04 24 10  11 17 26.591   -21 06 00.11  2.3391 3.1630 138.4 23.5 4327  94
2024 04 24 11  11 17 25.123   -21 05 47.09  2.3399 3.1634 138.4 23.5 4341  94
2024 04 24 12  11 17 23.658   -21 05 34.08  2.3406 3.1638 138.4 23.5 4354  94
2024 04 24 13  11 17 22.196   -21 05 21.08  2.3414 3.1642 138.3 23.5 4368  94
2024 04 24 14  11 17 20.738   -21 05 08.08  2.3421 3.1646 138.3 23.5 4381  94
2024 04 24 15  11 17 19.282   -21 04 55.09  2.3429 3.1650 138.3 23.5 4395  94
2024 04 24 16  11 17 17.829   -21 04 42.10  2.3436 3.1654 138.2 23.5 4409  94
2024 04 24 17  11 17 16.379   -21 04 29.12  2.3443 3.1658 138.2 23.5 4422  94
2024 04 24 18  11 17 14.933   -21 04 16.14  2.3451 3.1663 138.1 23.5 4436  93
2024 04 24 19  11 17 13.489   -21 04 03.17  2.3458 3.1667 138.1 23.5 4449  93